088  
ASUS44 KFWD 270715  
RWRFWD  
NORTH TEXAS HOURLY WEATHER ROUNDUP  
NATIONAL WEATHER SERVICE FORT WORTH TX  
100 AM CST SAT FEB 27 2021  
 
NOTE: "FAIR" INDICATES FEW OR NO CLOUDS BELOW 12,000 FEET WITH NO  
SIGNIFICANT WEATHER AND/OR S TO VISIBILITY
.  
 
TXZ118-119-270800-  
DALLAS/FORT WORTH METROPLEX  
 
CITY SKY/WX TMP DP RH WIND PRES REMARKS
 
DFW AIRPORT CLOUDY 52 50 93 SE3 29.91S  
DALLAS LOVE CLOUDY 54 50 86 CALM 29.93R  
FTW MEACHAM CLOUDY 50 49 96 SE5 29.90F  
DAL-EXECUTIVE MOCLDY 53 50 89 CALM 29.91F  
FTW-ALLIANCE CLOUDY 53 49 86 CALM 29.92R  
FTW-NAS-JRB CLOUDY 53 49 86 SE5 29.91F  
FTW-SPINKS CLOUDY 51 50 95 CALM 29.94S  
ARLINGTON CLOUDY 53 49 86 SE3 29.92F  
GRAND PRAIRIE CLOUDY 52 52 100 CALM 29.93F  
ADDISON CLOUDY 53 50 92 E3 29.94S  
MESQUITE MOCLDY 52 51 98 SE3 29.94S  
LANCASTER MOCLDY 52 50 95 CALM 29.94S  

 
 
TXZ091>094-102>105-117-120-121-131>134-270800-  
NORTH CENTRAL TEXAS  
 
CITY SKY/WX TMP DP RH WIND PRES REMARKS
 
SHRMAN/DENISON MOCLDY 51 48 90 SE6 29.94F FOG  
GAINESVILLE MOCLDY 46 46 99 SE3 29.94F FOG  
BOWIE CLOUDY 47 46 97 SE3 29.91S FOG  
BRIDGEPORT CLOUDY 50 49 97 CALM 29.92F  
DECATUR CLOUDY 51 49 90 SE6 29.90F  
DENTON CLOUDY 49 47 93 S3 29.93S  
MCKINNEY CLOUDY 50 48 93 CALM 29.93S FOG  
BONHAM MOCLDY 48 47 98 CALM 29.94F FOG  
GREENVILLE FOG 48 48 99 CALM 29.94S VSB 3/4  
ROCKWALL MOCLDY 50 50 100 SE3 29.94R FOG  
TERRELL PTCLDY 52 51 97 E5 29.93F  
WAXAHACHIE MOCLDY 53 52 94 CALM 29.94S  
CLEBURNE PTCLDY 52 52 100 SE5 29.94R  
GRANBURY CLOUDY 53 50 89 SE6 29.93S  

 
 
TXZ083>090-098>101-113>116-127>130-139>142-154-155-270800-  
WESTERN NORTH TEXAS  
 
CITY SKY/WX TMP DP RH WIND PRES REMARKS
 
WICHITA FALLS MOCLDY 43 42 97 SE7 29.87F WCI 39  
WF-KICKAPOO MOCLDY 45 44 95 S7 29.89S  
VERNON PTCLDY 42 42 98 CALM 29.88S  
ABILENE CLOUDY 54 49 83 SE9 29.89S  
ABILENE-DYESS CLOUDY 54 44 71 SE9 29.87S  
BRECKENRIDGE CLOUDY 56 51 84 S7 29.89S  
CISCO CLOUDY 52 50 93 S9 29.88F  
EASTLAND CLOUDY 51 49 93 SE5 29.91R  
RANGER CLOUDY 53 51 95 S7 29.92R  
MINERAL WELLS CLOUDY 51 49 92 SE6 29.90S  
STEPHENVILLE CLOUDY 52 49 89 S3 29.94S  
COMANCHE CLOUDY 51 51 100 S6 29.92F FOG  
BROWNWOOD CLOUDY 55 55 100 SE6 29.92S  
COLEMAN MOCLDY 52 49 90 S5 29.91R  
BRADY CLOUDY 55 55 100 CALM 29.91S FOG  

 
 
TXZ143>147-156>162-174-175-270800-  
CENTRAL TEXAS  
 
CITY SKY/WX TMP DP RH WIND PRES REMARKS
 
WACO MOCLDY 57 53 86 E5 29.93R  
WACO-MCGREGOR CLOUDY 57 54 88 SE3 29.94R  
HILLSBORO CLOUDY 57 57 100 CALM 29.92F  
CORSICANA CLOUDY 54 53 97 SE6 29.96S  
MEXIA CLOUDY 56 55 98 S6 29.94S  
HEARNE CLOUDY 58 55 90 CALM 29.95R  
CAMERON CLOUDY 56 53 88 CALM 29.93S  
TEMPLE CLOUDY 55 54 94 E3 29.94S  
KILLEEN CLOUDY 57 53 88 CALM 29.91S  
KILLEEN-SKYLRK CLOUDY 58 53 84 E3 29.93S  
FORT HOOD CLOUDY 57 54 88 SE3 29.92S  
GATESVILLE CLOUDY 57 54 88 CALM 29.94S  
HAMILTON CLOUDY 56 56 100 S3 29.94R  
LAMPASAS CLOUDY 56 54 91 CALM 29.92R  

 
 
TXZ095>097-106>112-122>126-135>138-148>153-164>167-270800-  
EAST TEXAS  
 
CITY SKY/WX TMP DP RH WIND PRES REMARKS
 
PARIS FOG 45 45 100 E6 29.96R VSB 3/4  
SULPHUR SPRNGS MOCLDY 50 50 100 CALM 29.97F FOG  
MOUNT PLEASANT CLOUDY 53 52 97 SE5 29.98F  
GILMER RAIN 52 51 97 CALM 29.98S  
MINEOLA CLOUDY 52 52 100 SE3 29.95F FOG  
TYLER CLOUDY 55 53 93 E5 29.95F  
LONGVIEW LGT RAIN 54 52 93 N3 29.97R  
MARSHALL CLOUDY 53 51 94 CALM 30.00S  
ATHENS CLOUDY 54 52 94 CALM 29.95S  
PALESTINE CLOUDY 55 55 100 CALM 29.95F FOG  
JACKSONVILLE CLOUDY 56 56 100 CALM 29.97S FOG  
HENDERSON CLOUDY 56 55 97 CALM 29.97F FOG  
CENTER CLOUDY 61 57 88 CALM 29.98R  
NACOGDOCHES CLOUDY 62 60 93 CALM 29.96S  
LUFKIN CLOUDY 65 65 100 CALM 29.95S  

 
 
SUPPLEMENTAL OBSERVATIONS (NWS FORT WORTH AREA)  
 
CITY SKY/WX TMP DP RH WIND PRES REMARKS
 
CADDO GRASSLND N/A 46 45 93 S1 N/A  
LBJ GRASSLAND N/A 54 52 94 SE7 N/A  
POSSUM KINGDOM N/A 55 50 82 SE6 N/A  
GRANBURY N/A 52 50 93 SE6 N/A  
COMANCHE N/A 52 50 93 S7 N/A  
MCGREGOR N/A 57 54 88 S3 N/A  
TEMPLE N/A 55 52 88 SE1 N/A  
LAKE LIMESTONE N/A 57 55 94 NE2 N/A  
PALESTINE N/A 55 54 94 N2 N/A  

 
 
SUPPLEMENTAL OBSERVATIONS (NWS NORMAN AREA)  
 
CITY SKY/WX TMP DP RH WIND PRES REMARKS
 
GOODLETT N/A 42 36 79 S7 29.84F WCI 38  
ODELL N/A 44 42 92 SE9 29.87F WCI 39  
CROWELL N/A 45 39 78 S6 29.87S  
KNOX CITY N/A 44 37 78 CALM 29.86F  
SEYMOUR N/A 49 45 84 S9 29.87S  
MILLERS CREEK N/A 52 46 82 SW9 N/A  

 
 
SUPPLEMENTAL OBSERVATIONS (NWS SAN ANGELO AREA)  
 
CITY SKY/WX TMP DP RH WIND PRES REMARKS
 
WEINERT N/A 49 39 68 S6 29.87S  
HASKELL N/A 46 38 71 S5 29.87S  
THROCKMORTON N/A 53 48 85 S9 29.87F  
STAMFORD N/A 49 45 85 S6 29.89S  
CLYDE N/A 52 49 90 S15 29.90R  
HAMBY N/A 54 48 82 SE6 N/A  

 
 
SUPPLEMENTAL OBSERVATIONS (NWS SHREVEPORT AREA)  
 
CITY SKY/WX TMP DP RH WIND PRES REMARKS
 
TEXARKANA N/A 52 50 93 SE1 N/A  
CADDO LAKE N/A 54 52 94 CALM N/A  
LUFKIN N/A 66 63 88 MISG N/A  

 
 
SUPPLEMENTAL OBSERVATIONS ARE A COLLECTION OF AUTOMATED INSTRUMENTS  
THAT ARE MAINTAINED BY A VARIETY OF FEDERAL AND STATE AGENCIES.  
CERTAIN ELEMENTS...SUCH AS HUMIDITY VALUES AND SUSTAINED WIND  
SPEEDS...MAY BE APPROXIMATED.  
 
 
 
CLICK HERE TO GO TO PREVIOUS BULLETINS.

The Nexlab TX Page Main Text Page